This is the latest recevied weather packets stored in our database for station/object OM6ACB-6. If no packets are shown the sender has not sent any weather packets the latest 10 day(s).
| Time | Temp. | Humidity | Pressure | Rain* | Wind** | Luminosity | Snow |
|---|---|---|---|---|---|---|---|
| 1788252796 | 23.33° C | 21% | 1024.3 hPa | 0 mm | - | - | - |
| 1788252196 | 23.33° C | 21% | 1024 hPa | 0 mm | - | - | - |
| 1788251596 | 24.44° C | 20% | 1024.2 hPa | 0 mm | - | - | - |
| 1788250995 | 23.89° C | 20% | 1024.1 hPa | 0 mm | - | - | - |
| 1788250395 | 23.89° C | 21% | 1024 hPa | 0 mm | - | - | - |
| 1788249795 | 25° C | 20% | 1024.2 hPa | 0 mm | - | - | - |
| 1788249194 | 23.89° C | 21% | 1023.8 hPa | 0 mm | - | - | - |
| 1788248594 | 25° C | 20% | 1023.9 hPa | 0 mm | - | - | - |
| 1788247994 | 24.44° C | 20% | 1023.9 hPa | 0 mm | - | - | - |
| 1788247393 | 22.78° C | 21% | 1023.8 hPa | 0 mm | - | - | - |
| 1788246793 | 23.89° C | 21% | 1023.7 hPa | 0 mm | - | - | - |
| 1788246193 | 24.44° C | 20% | 1023.6 hPa | 0 mm | - | - | - |
| 1788245593 | 23.89° C | 21% | 1023.4 hPa | 0 mm | - | - | - |
| 1788244992 | 24.44° C | 20% | 1023.3 hPa | 0 mm | - | - | - |
| 1788244392 | 25.56° C | 20% | 1023.5 hPa | 0 mm | - | - | - |
| 1788243792 | 23.89° C | 21% | 1023.3 hPa | 0 mm | - | - | - |
| 1788243191 | 22.78° C | 21% | 1023.2 hPa | 0 mm | - | - | - |
| 1788242591 | 21.67° C | 22% | 1023.1 hPa | 0 mm | - | - | - |
| 1788241991 | 21.11° C | 22% | 1022.9 hPa | 0 mm | - | - | - |
| 1788241391 | 20° C | 22% | 1022.7 hPa | 0 mm | - | - | - |
| 1788240790 | 20° C | 23% | 1022.6 hPa | 0 mm | - | - | - |
| 1788240190 | 18.89° C | 23% | 1022.4 hPa | 0 mm | - | - | - |
| 1788239594 | 18.33° C | 23% | 1022.3 hPa | 0 mm | - | - | - |
| 1788238989 | 18.33° C | 23% | 1022.3 hPa | 0 mm | - | - | - |
| 1788238389 | 16.11° C | 24% | 1021.6 hPa | 0 mm | - | - | - |
* Rain latest hour (hover to see other rain measurements)
** Current wind speed in m/s (hover to see current wind gust speed)